KC8PTQ Weather Reports


Display with metric or nautical units.
time (UTC)temp
F
wind
direction
speed
MPH
gust
MPH
rain 1hr
in
rain 24hr
in
rain mn
in
humidity
%
barometer
mb
20260506134313 47 343 0.0 1.0 0.00 0.43 0.43 91 1011.8
20260506133810 46 319 0.0 0.0 0.00 0.43 0.43 93 1011.7
20260506133307 46 332 0.0 1.0 0.00 0.43 0.43 93 1011.6
20260506132804 46 325 0.0 1.0 0.00 0.43 0.43 95 1011.7
20260506132301 46 301 0.0 0.0 0.00 0.43 0.43 96 1011.8
20260506131759 46 313 0.0 1.0 0.00 0.43 0.43 96 1011.5
20260506131255 46 290 1.0 1.0 0.00 0.43 0.43 97 1011.2
20260506130752 46 315 0.0 1.0 0.00 0.43 0.43 98 1011.2
20260506130249 46 312 0.0 1.0 0.00 0.43 0.43 98 1011.1
20260506125747 45 331 0.0 0.0 0.00 0.43 0.43 99 1011.2
20260506125244 45 311 0.0 0.0 0.00 0.43 0.43 99 1011.5
20260506124743 45 305 1.0 1.0 0.00 0.43 0.43 99 1011.3
20260506124240 45 307 0.0 0.0 0.00 0.43 0.43 99 1010.9
20260506123737 46 307 0.0 0.0 0.00 0.43 0.43 99 1010.8
20260506123236 45 5 0.0 0.0 0.00 0.43 0.43 99 1010.7
20260506122732 45 311 1.0 1.0 0.00 0.43 0.43 99 1010.8
20260506122229 45 323 0.0 0.0 0.00 0.43 0.43 99 1010.5
20260506121728 45 329 0.0 0.0 0.00 0.43 0.43 99 1010.6
20260506121224 45 315 0.0 0.0 0.00 0.43 0.43 99 1010.5
20260506120722 45 337 0.0 0.0 0.00 0.43 0.43 99 1010.5
20260506120219 45 339 0.0 0.0 0.00 0.43 0.43 99 1010.3
20260506115717 45 339 0.0 1.0 0.00 0.43 0.43 99 1010.4
20260506115215 45 301 0.0 0.0 0.00 0.43 0.43 99 1010.4
20260506114712 45 301 0.0 0.0 0.00 0.43 0.43 99 1010.4
20260506114210 44 301 0.0 0.0 0.00 0.43 0.43 99 1010.5
20260506113708 44 301 0.0 0.0 0.00 0.43 0.43 99 1010.3
20260506113205 44 301 0.0 0.0 0.00 0.43 0.43 99 1010.5
20260506112701 44 301 0.0 0.0 0.00 0.43 0.43 99 1010.8
20260506112159 44 357 0.0 0.0 0.00 0.43 0.43 99 1010.3
20260506111656 44 356 0.0 0.0 0.00 0.43 0.43 99 1010.2
20260506111154 44 356 0.0 0.0 0.00 0.43 0.43 99 1009.9
20260506110651 44 353 0.0 0.0 0.00 0.43 0.43 99 1009.4
20260506110148 44 320 0.0 0.0 0.00 0.43 0.43 99 1009.8
20260506105645 44 322 0.0 0.0 0.00 0.43 0.43 99 1010.1
20260506105142 44 318 1.0 1.0 0.00 0.43 0.43 99 1009.9
20260506104640 44 332 0.0 0.0 0.00 0.43 0.43 99 1009.9
20260506104137 44 320 1.0 1.0 0.00 0.43 0.43 99 1009.6
20260506103634 45 350 0.0 0.0 0.00 0.43 0.43 99 1009.7
20260506103131 45 332 0.0 0.0 0.00 0.43 0.43 99 1009.4
20260506102629 45 322 0.0 0.0 0.00 0.43 0.43 99 1009.6
20260506102126 44 327 0.0 0.0 0.00 0.43 0.43 99 1008.8
20260506101623 44 333 0.0 0.0 0.00 0.43 0.43 99 1008.9
20260506101120 44 334 0.0 1.0 0.00 0.43 0.43 99 1008.8
20260506100618 44 358 0.0 0.0 0.00 0.43 0.43 99 1008.6
20260506100116 44 357 0.0 0.0 0.00 0.43 0.43 99 1008.6
20260506095615 44 320 0.0 0.0 0.00 0.43 0.43 99 1008.4
20260506095111 44 354 0.0 0.0 0.00 0.43 0.43 99 1008.2
20260506094608 44 320 2.0 2.0 0.00 0.43 0.43 99 1008.5
20260506094106 44 346 0.0 1.0 0.05 0.43 0.43 99 1008.4
20260506093604 45 331 0.0 0.0 0.05 0.43 0.43 99 1008.8
20260506093101 45 328 0.0 0.0 0.00 0.42 0.42 99 1009.0
20260506092559 45 0 0.0 1.0 0.00 0.42 0.42 99 1009.3
20260506092055 45 339 0.0 0.0 0.07 0.42 0.42 99 1009.5
20260506091554 45 2 0.0 1.0 0.07 0.42 0.42 99 1009.4
20260506091051 45 358 0.0 1.0 0.00 0.41 0.41 99 1009.5
20260506090549 45 319 0.0 0.0 0.05 0.41 0.41 99 1009.4
20260506090045 45 321 0.0 1.0 0.12 0.41 0.41 99 1009.4
20260506085542 45 345 0.0 0.0 0.07 0.40 0.40 99 1009.4
20260506085038 45 346 0.0 0.0 0.00 0.39 0.39 99 1009.2
20260506084535 45 344 0.0 0.0 0.00 0.39 0.39 99 1009.3
20260506084031 45 338 0.0 0.0 0.00 0.39 0.39 99 1009.1
20260506083529 45 342 0.0 0.0 0.00 0.39 0.39 99 1009.1
20260506083026 45 337 0.0 0.0 0.00 0.39 0.39 99 1009.2
20260506082523 45 283 0.0 0.0 0.05 0.39 0.39 99 1009.0
20260506082018 45 320 0.0 0.0 0.05 0.39 0.39 99 1009.2
20260506081517 45 355 1.0 1.0 0.00 0.38 0.38 99 1009.0
20260506081014 45 339 0.0 0.0 0.00 0.38 0.38 99 1009.2
20260506080511 45 338 0.0 0.0 0.07 0.38 0.38 99 1009.3
20260506073455 44 319 1.0 2.0 0.19 0.33 0.33 99 1009.4
20260506072952 44 25 2.0 2.0 0.12 0.32 0.32 99 1009.3
20260506072449 44 327 2.0 3.0 0.05 0.30 0.30 99 1009.2
20260506071947 44 15 1.0 1.0 0.12 0.30 0.30 99 1009.0
20260506071445 44 5 0.0 0.0 0.12 0.29 0.29 99 1009.0
20260506070941 44 334 0.0 1.0 0.12 0.28 0.28 99 1009.0
20260506070438 45 335 1.0 2.0 0.12 0.27 0.27 99 1009.0
20260506062416 45 1 0.0 0.0 0.05 0.19 0.19 99 1009.0
20260506061911 45 341 1.0 1.0 0.07 0.18 0.18 99 1008.9
20260506061408 45 316 0.0 0.0 0.07 0.18 0.18 99 1008.9
20260506060906 45 342 0.0 1.0 0.00 0.17 0.17 99 1009.0
20260506060404 45 9 0.0 1.0 0.00 0.17 0.17 99 1008.9
20260506051336 46 327 1.0 1.0 0.12 0.10 0.10 99 1009.5
20260506050833 47 359 0.0 1.0 0.12 0.09 0.09 99 1009.2
20260506050331 48 6 1.0 2.0 0.05 0.08 0.08 99 1009.3
20260506044821 48 19 2.0 3.0 0.12 0.07 0.07 99 1009.2
20260506044319 48 14 1.0 1.0 0.12 0.06 0.06 99 1009.3
20260506043816 48 340 0.0 1.0 0.07 0.05 0.05 99 1009.3
20260506043313 48 348 1.0 1.0 0.05 0.04 0.04 99 1009.3
20260506042812 48 341 0.0 0.0 0.05 0.04 0.04 99 1009.2
20260506042310 48 350 0.0 1.0 0.07 0.03 0.03 99 1009.2
20260506041809 48 39 3.0 3.0 0.12 0.03 0.03 99 1009.3
20260506041305 48 21 1.0 2.0 0.05 0.02 0.02 99 1009.4
20260506040802 48 330 0.0 0.0 0.07 0.01 0.01 99 1009.4
20260506040259 48 348 0.0 0.0 0.07 0.01 0.01 99 1009.5
20260506035756 48 318 1.0 1.0 0.05 1.06 1.06 99 1009.5
20260506035253 48 6 0.0 1.0 0.12 1.06 1.06 99 1009.5
20260506034750 48 338 0.0 0.0 0.14 1.05 1.05 99 1009.8
20260506034247 48 338 0.0 0.0 0.07 1.04 1.04 99 1009.8
20260506033744 48 342 0.0 0.0 0.05 1.03 1.03 99 1009.8
20260506033241 48 340 0.0 0.0 0.12 1.03 1.03 99 1010.1
20260506032738 49 343 0.0 1.0 0.07 1.02 1.02 99 1009.8
20260506032235 49 315 0.0 0.0 0.05 1.01 1.01 99 1010.3
20260506031732 49 345 0.0 1.0 0.12 1.01 1.01 99 1010.1
20260506031229 49 330 0.0 0.0 0.07 1.00 1.00 99 1010.2
20260506030727 49 338 0.0 1.0 0.12 1.00 1.00 99 1010.1
20260506030225 49 336 0.0 1.0 0.05 0.99 0.99 99 1010.1
20260506025721 49 17 0.0 1.0 0.07 0.98 0.98 99 1010.4
20260506025218 49 341 0.0 0.0 0.07 0.98 0.98 99 1010.1
20260506024714 49 343 0.0 0.0 0.05 0.97 0.97 99 1010.2
20260506024211 49 344 1.0 1.0 0.12 0.97 0.97 99 1010.3
20260506023707 49 329 0.0 0.0 0.12 0.96 0.96 99 1010.3
20260506023205 50 339 0.0 0.0 0.12 0.95 0.95 99 1010.5
20260506022702 49 350 0.0 0.0 0.12 0.94 0.94 99 1010.5
20260506022159 49 350 0.0 0.0 0.12 0.93 0.93 99 1010.6
20260506021657 49 337 0.0 0.0 0.19 0.92 0.92 99 1010.4
20260506021154 49 336 0.0 0.0 0.19 0.91 0.91 99 1010.2
20260506020651 49 347 0.0 0.0 0.17 0.90 0.90 99 1010.2
20260506020149 49 35 0.0 0.0 0.17 0.88 0.88 99 1010.1
20260506015646 49 8 1.0 2.0 0.19 0.87 0.87 99 1009.7
20260506015144 49 337 0.0 0.0 0.12 0.85 0.85 99 1009.6
20260506014641 49 317 0.0 0.0 0.12 0.84 0.84 99 1009.6
20260506014136 49 328 1.0 1.0 0.19 0.83 0.83 99 1009.4
20260506013635 50 350 0.0 1.0 0.24 0.82 0.82 99 1009.4
20260506013131 50 345 0.0 1.0 0.31 0.80 0.80 99 1009.6
20260506012627 50 29 3.0 3.0 0.35 0.78 0.78 99 1009.5
20260506012124 50 32 2.0 3.0 0.35 0.75 0.75 99 1009.4
20260506011622 51 336 0.0 0.0 0.35 0.73 0.73 99 1009.4
20260506011118 51 319 0.0 0.0 0.35 0.69 0.69 99 1009.7
20260506010617 51 325 0.0 0.0 0.40 0.66 0.66 99 1009.3
20260506010108 51 335 0.0 0.0 0.42 0.63 0.63 99 1009.0
20260506005605 51 282 0.0 1.0 0.38 0.59 0.59 99 1009.4
20260506005102 51 22 2.0 2.0 0.31 0.56 0.56 99 1009.4
20260506004559 51 338 0.0 0.0 0.35 0.53 0.53 99 1009.1
20260506004055 51 334 0.0 0.0 0.28 0.51 0.51 99 1009.1
20260506003551 50 3 0.0 1.0 0.24 0.48 0.48 99 1008.9
20260506003048 50 2 0.0 0.0 0.19 0.46 0.46 99 1008.8
20260506002544 51 2 0.0 0.0 0.19 0.44 0.44 99 1008.9
20260506002040 50 3 0.0 0.0 0.24 0.43 0.43 99 1008.7
20260506001536 51 3 0.0 1.0 0.24 0.41 0.41 99 1008.9
20260506001034 51 339 1.0 1.0 0.19 0.39 0.39 99 1009.0
20260506000531 51 334 0.0 0.0 0.12 0.38 0.38 99 1009.0
20260506000028 51 339 0.0 0.0 0.12 0.36 0.36 99 1008.8
20260505235526 51 36 4.0 4.0 0.12 0.36 0.36 99 1008.9
20260505235023 52 10 0.0 1.0 0.00 0.34 0.34 99 1009.0
20260505234520 52 8 2.0 3.0 0.00 0.34 0.34 99 1009.0
20260505234017 53 21 0.0 0.0 0.00 0.34 0.34 99 1009.0
20260505233514 55 0 0.0 1.0 0.05 0.34 0.34 99 1009.1
20260505233011 56 346 0.0 0.0 0.05 0.34 0.34 99 1009.2
20260505232509 56 308 0.0 0.0 0.00 0.33 0.33 99 1009.1
20260505232006 56 308 0.0 0.0 0.07 0.33 0.33 99 1009.0
20260505231503 56 308 0.0 0.0 0.12 0.33 0.33 99 1009.1
20260505231002 56 308 0.0 0.0 0.12 0.32 0.32 99 1009.2
20260505230459 56 308 0.0 0.0 0.19 0.31 0.31 99 1009.1
20260505225955 56 313 0.0 0.0 0.19 0.30 0.30 99 1008.9
20260505225452 56 313 0.0 0.0 0.12 0.28 0.28 99 1008.9
20260505224948 57 312 0.0 0.0 0.17 0.27 0.27 99 1009.1
20260505224445 57 315 0.0 0.0 0.24 0.26 0.26 99 1009.2
20260505223942 57 346 0.0 1.0 0.42 0.24 0.24 99 1009.2
20260505223439 57 307 1.0 1.0 0.54 0.22 0.22 99 1009.3
20260505222936 57 318 0.0 1.0 0.61 0.18 0.18 99 1009.3
20260505222432 58 314 0.0 1.0 0.35 0.13 0.13 99 1009.4
20260505221928 58 312 0.0 0.0 0.05 0.08 0.08 99 1009.2
20260505221425 58 340 0.0 0.0 0.00 0.07 0.07 99 1009.1
20260505220922 58 341 0.0 0.0 0.07 0.07 0.07 98 1008.7
20260505220419 58 341 0.0 0.0 0.07 0.07 0.07 98 1008.5
20260505215917 58 341 0.0 0.0 0.00 0.06 0.06 98 1008.8
20260505215415 58 341 0.0 0.0 0.00 0.06 0.06 98 1008.6
20260505214913 58 341 0.0 0.0 0.00 0.06 0.06 98 1008.5
20260505214410 58 341 0.0 0.0 0.00 0.06 0.06 98 1008.8
20260505213907 58 341 0.0 0.0 0.00 0.06 0.06 98 1008.9
20260505213405 58 342 0.0 0.0 0.00 0.06 0.06 98 1008.8
20260505212901 58 342 0.0 0.0 0.00 0.06 0.06 98 1008.9
20260505212358 58 342 0.0 0.0 0.00 0.06 0.06 98 1008.9
20260505211854 58 342 0.0 0.0 0.00 0.06 0.06 97 1008.6
20260505211352 58 341 0.0 0.0 0.00 0.06 0.06 97 1008.8
20260505210848 58 341 0.0 0.0 0.00 0.06 0.06 97 1009.0
20260505210345 58 309 0.0 0.0 0.00 0.06 0.06 97 1009.0
20260505205842 58 309 0.0 0.0 0.00 0.06 0.06 97 1008.9
20260505205340 58 330 0.0 0.0 0.00 0.06 0.06 97 1008.9
20260505204837 59 344 0.0 0.0 0.00 0.06 0.06 97 1008.9
20260505204335 59 313 0.0 0.0 0.19 0.06 0.06 97 1009.1
20260505203832 59 316 0.0 1.0 0.19 0.06 0.06 97 1009.2
20260505203328 59 16 0.0 1.0 0.00 0.03 0.03 96 1009.3
20260505202824 59 335 0.0 0.0 0.00 0.03 0.03 96 1009.1
20260505202320 59 335 0.0 0.0 0.00 0.03 0.03 96 1009.1
20260505201817 59 336 0.0 0.0 0.00 0.03 0.03 95 1008.9
20260505201315 59 336 0.0 0.0 0.05 0.03 0.03 95 1009.0
20260505200813 59 336 0.0 0.0 0.12 0.03 0.03 93 1009.1
20260505200310 60 319 0.0 0.0 0.12 0.02 0.02 92 1008.9
20260505195804 61 319 0.0 0.0 0.05 0.01 0.01 90 1009.1
20260505195305 62 299 1.0 1.0 0.00 0.00 0.00 86 1009.2
20260505194759 62 306 0.0 0.0 0.00 0.00 0.00 82 1008.8
20260505194256 63 318 0.0 0.0 0.00 0.00 0.00 82 1009.0
20260505193751 63 292 2.0 2.0 0.00 0.00 0.00 80 1008.9
20260505193249 63 316 0.0 1.0 0.00 0.00 0.00 79 1008.9
20260505192747 64 303 1.0 1.0 0.00 0.00 0.00 78 1008.9
20260505192245 65 297 1.0 1.0 0.00 0.00 0.00 76 1009.0
20260505191743 65 27 0.0 0.0 0.00 0.00 0.00 75 1009.0
20260505191241 66 313 1.0 1.0 0.00 0.00 0.00 73 1008.8
20260505190737 66 283 1.0 1.0 0.00 0.00 0.00 72 1009.0
20260505190232 66 290 1.0 2.0 0.00 0.00 0.00 72 1009.1
20260505185728 66 310 0.0 1.0 0.00 0.00 0.00 72 1008.9
20260505185225 66 316 0.0 0.0 0.00 0.00 0.00 73 1009.0
20260505184720 66 260 1.0 2.0 0.00 0.00 0.00 71 1009.0
20260505184219 66 309 0.0 1.0 0.00 0.00 0.00 72 1009.1
20260505183715 65 294 1.0 1.0 0.00 0.00 0.00 73 1009.1
20260505183212 65 275 0.0 1.0 0.00 0.00 0.00 72 1009.3
20260505182708 64 264 1.0 2.0 0.00 0.00 0.00 73 1009.4
20260505182206 64 241 1.0 1.0 0.00 0.00 0.00 74 1009.6
20260505181702 64 318 0.0 0.0 0.00 0.00 0.00 75 1009.4
20260505181200 64 298 1.0 1.0 0.00 0.00 0.00 74 1009.6
20260505180656 64 201 2.0 2.0 0.00 0.00 0.00 74 1009.5
20260505180153 65 206 2.0 6.0 0.00 0.00 0.00 73 1009.3
20260505175649 64 271 0.0 0.0 0.00 0.00 0.00 75 1009.3
20260505175145 64 298 1.0 1.0 0.00 0.00 0.00 74 1009.3
20260505174642 64 242 3.0 7.0 0.00 0.00 0.00 74 1009.3
20260505174138 64 277 1.0 2.0 0.00 0.00 0.00 74 1009.2
20260505173635 64 259 1.0 2.0 0.00 0.00 0.00 73 1009.1
20260505173132 64 292 1.0 1.0 0.00 0.00 0.00 73 1009.4
20260505172630 64 329 1.0 1.0 0.00 0.00 0.00 72 1009.3
20260505172126 64 347 2.0 2.0 0.00 0.00 0.00 72 1009.3
20260505171620 64 294 2.0 6.0 0.00 0.00 0.00 71 1009.2
20260505171118 65 310 0.0 1.0 0.00 0.00 0.00 71 1009.4
20260505170615 65 301 0.0 0.0 0.00 0.00 0.00 70 1009.3
20260505170111 65 269 1.0 1.0 0.00 0.00 0.00 70 1009.2
20260505165606 65 263 1.0 1.0 0.00 0.00 0.00 69 1009.2
20260505165102 65 263 4.0 4.0 0.00 0.00 0.00 68 1009.3
20260505164558 66 299 1.0 2.0 0.00 0.00 0.00 68 1009.1
20260505164056 66 310 1.0 1.0 0.00 0.00 0.00 67 1009.2
20260505163554 66 200 2.0 3.0 0.00 0.00 0.00 66 1009.2
20260505163051 67 292 3.0 3.0 0.00 0.00 0.00 66 1009.1
20260505162544 67 281 2.0 3.0 0.00 0.00 0.00 65 1008.9
20260505162041 67 295 3.0 3.0 0.00 0.00 0.00 64 1009.3
20260505161538 67 287 3.0 4.0 0.00 0.00 0.00 63 1009.2
20260505161035 68 250 4.0 6.0 0.00 0.00 0.00 62 1009.2
20260505160533 68 234 3.0 6.0 0.00 0.00 0.00 62 1009.1
20260505153009 69 275 0.0 1.0 0.00 0.00 0.00 62 1008.1
20260505152507 69 303 1.0 2.0 0.00 0.00 0.00 62 1008.1
20260505152002 68 210 3.0 4.0 0.00 0.00 0.00 62 1008.1
20260505151457 68 315 1.0 1.0 0.00 0.00 0.00 63 1008.1
20260505150955 67 204 2.0 3.0 0.00 0.00 0.00 65 1008.1
20260505150452 67 255 6.0 7.0 0.00 0.00 0.00 65 1008.2
20260505140422 64 215 1.0 1.0 0.00 0.00 0.00 73 1008.2